Location: Eymir
(36.7333°N, 29.7833°E)
Time: 15:40:53
(UTC+00:00)

Meteor 2-10 Rocket - Visible Passes

Search period start: 11 April 2026 00:00
Search period end: 21 April 2026 00:00
Orbit: 732 x 882 km, 81.2° (Epoch: 11 April)

Date Brightness Start Highest point End Pass type
(mag) Time Alt. Az. Time Alt. Az. Time Alt. Az.
11 Apr 6.2 02:13:39 10° NNE 02:17:30 21° ENE 02:21:22 10° ESE visible
11 Apr 5.9 16:54:47 10° SW 16:59:21 29° WNW 17:03:48 10° NNW visible
12 Apr 6.6 01:49:27 10° NE 01:52:15 15° ENE 01:55:04 10° ESE visible
14 Apr 3.9 02:39:25 10° N 02:44:27 69° E 02:49:37 10° SSE visible
15 Apr 4.7 02:14:29 10° N 02:19:22 46° ENE 02:24:21 10° SSE visible
15 Apr 7.0 16:58:47 10° W 17:01:21 14° WNW 17:03:53 10° NW visible
16 Apr 5.4 01:49:43 10° NNE 01:54:14 31° ENE 01:58:49 10° SE visible
17 Apr 6.0 01:25:09 10° NNE 01:29:02 21° ENE 01:32:59 10° ESE visible
18 Apr 6.4 01:00:57 10° NE 01:03:48 15° ENE 01:06:41 10° ESE visible
18 Apr 3.6 02:41:07 10° NNW 02:46:06 55° W 02:51:13 10° S visible
19 Apr 3.4 02:15:57 10° N 02:21:04 82° W 02:26:22 10° S visible
20 Apr 3.9 01:50:54 10° N 01:56:01 68° E 02:01:18 10° SSE visible
